�v������,���O�C��(��),���O���x(��),�Ɠx(lx),��O�J�Z���T�[(1:�~�J),����(m/s)
2022/10/1 0:00,20.8,88.2,2,0,1
2022/10/1 0:10,20.7,88.7,2,0,2
2022/10/1 0:20,20.7,89.5,2,0,2
2022/10/1 0:30,20.4,89.9,0,0,1
2022/10/1 0:40,20.5,90.4,2,0,1
2022/10/1 0:50,20.4,90.1,2,0,1
2022/10/1 1:00,20.5,90.4,2,0,1
2022/10/1 1:10,20.3,90.8,0,0,1
2022/10/1 1:20,20.2,90.9,2,0,1
2022/10/1 1:30,20.1,91.3,2,0,2
2022/10/1 1:40,20.1,91.5,2,0,1
2022/10/1 1:50,20.1,91.6,0,0,1.5
2022/10/1 2:00,20,91.6,0,0,1
2022/10/1 2:10,20,92,2,0,2
2022/10/1 2:20,20,92.6,2,0,2
2022/10/1 2:30,19.9,92.7,2,0,1
2022/10/1 2:40,19.9,92.7,2,0,0
2022/10/1 2:50,19.7,92.8,2,0,1
2022/10/1 3:00,20,92.6,0,0,2
2022/10/1 3:10,19.8,92.6,2,0,1.5
2022/10/1 3:20,19.8,92.5,2,0,1
2022/10/1 3:30,19.8,92.5,2,0,1
2022/10/1 3:40,19.5,93.1,2,0,1
2022/10/1 3:50,19.7,93.4,2,0,1
2022/10/1 4:00,19.6,93.4,2,0,1
2022/10/1 4:10,19.7,93.5,2,0,0
2022/10/1 4:20,19.7,93.7,2,0,1
2022/10/1 4:30,19.5,93.8,2,0,1
2022/10/1 4:40,19.4,94.3,2,0,1
2022/10/1 4:50,19.3,94.7,0,0,1
2022/10/1 5:00,19.3,95,0,0,1
2022/10/1 5:10,19.3,95,0,0,2
2022/10/1 5:20,19.3,94.8,2,0,1
2022/10/1 5:30,19.3,94.8,2,0,1
2022/10/1 5:40,19.2,94.8,2,0,1
2022/10/1 5:50,19.2,95.1,26,0,2
2022/10/1 6:00,19.1,95.4,180,0,2
2022/10/1 6:10,19.1,95.8,999.68,0,1.5
2022/10/1 6:20,19.2,95.8,999.68,0,1
2022/10/1 6:30,19,95.8,6999.04,0,0
2022/10/1 6:40,19,95.5,15994.9,0,1
2022/10/1 6:50,19.2,95.3,20992,0,1
2022/10/1 7:00,19.4,94.8,25989.1,0,1
2022/10/1 7:10,19.8,93.9,26992.6,0,1
2022/10/1 7:20,19.7,92.8,27996.2,0,1
2022/10/1 7:30,20.2,91.4,27996.2,0,1
2022/10/1 7:40,20.3,89.4,29982.7,0,1
2022/10/1 7:50,20.8,87.9,32481.3,0,1
2022/10/1 8:00,20.9,86.4,33996.8,0,1
2022/10/1 8:10,21.3,84.2,34979.8,0,1
2022/10/1 8:20,21.9,82.5,34979.8,0,1
2022/10/1 8:30,22.6,81.3,31989.8,0,1.5
2022/10/1 8:40,22.9,80.1,33996.8,0,1
2022/10/1 8:50,23.3,79.4,33996.8,0,1
2022/10/1 9:00,23.6,77.6,30986.2,0,1.5
2022/10/1 9:10,24.7,74.4,31989.8,0,1
2022/10/1 9:20,25.2,72.5,29982.7,0,2
2022/10/1 9:30,25.3,71.8,28999.7,0,1
2022/10/1 9:40,25.2,72.2,28999.7,0,1
2022/10/1 9:50,24.8,73.9,27996.2,0,1.5
2022/10/1 10:00,24.9,74.6,26992.6,0,2.5
2022/10/1 10:10,24.9,75.9,26992.6,0,2
2022/10/1 10:20,24.5,77.3,26992.6,0,3
2022/10/1 10:30,24.5,77.6,25989.1,0,4
2022/10/1 10:40,24.6,78,25989.1,0,4
2022/10/1 10:50,24.4,77.5,25989.1,0,3
2022/10/1 11:00,24.6,75.9,24985.6,0,4
2022/10/1 11:10,25,74.8,23982.1,0,2.5
2022/10/1 11:20,25.3,69.9,23982.1,0,1
2022/10/1 11:30,26.6,63.7,23982.1,0,1
2022/10/1 11:40,27.3,58.3,23982.1,0,1
2022/10/1 11:50,27.6,57,24985.6,0,1
2022/10/1 12:00,27.7,55.3,24985.6,0,1
2022/10/1 12:10,27.7,52.8,24985.6,0,2
2022/10/1 12:20,27.7,51.6,24985.6,0,2
2022/10/1 12:30,27.4,55.8,24985.6,0,1
2022/10/1 12:40,28.3,55.3,25989.1,0,1
2022/10/1 12:50,28.5,58,25989.1,0,2
2022/10/1 13:00,28.7,59.6,26992.6,0,2.5
2022/10/1 13:10,28.6,62.2,27996.2,0,2
2022/10/1 13:20,27.9,64.9,28999.7,0,3
2022/10/1 13:30,27.7,67.3,29982.7,0,4
2022/10/1 13:40,27.4,68.3,28999.7,0,2
2022/10/1 13:50,27.2,69.2,28999.7,0,2
2022/10/1 14:00,27.3,69.3,28999.7,0,2
2022/10/1 14:10,27.5,68.4,29982.7,0,2.5
2022/10/1 14:20,27.9,67.7,29491.2,0,2
2022/10/1 14:30,27.7,67.8,28999.7,0,1
2022/10/1 14:40,27.2,68.9,29982.7,0,3
2022/10/1 14:50,27.4,69.7,26992.6,0,1
2022/10/1 15:00,27.7,69.4,28999.7,0,3
2022/10/1 15:10,27.7,68,28999.7,0,3
2022/10/1 15:20,27.9,67.8,27996.2,0,2
2022/10/1 15:30,27.5,69.1,27996.2,0,3
2022/10/1 15:40,27.6,68.1,26992.6,0,1
2022/10/1 15:50,27.8,67.6,25989.1,0,1
2022/10/1 16:00,27.6,68.9,23982.1,0,1.5
2022/10/1 16:10,27.6,65.7,21995.5,0,2
2022/10/1 16:20,27.4,66,21995.5,0,2
2022/10/1 16:30,27.4,65,19998.7,0,1
2022/10/1 16:40,27.5,63.7,17991.7,0,2
2022/10/1 16:50,27.6,63.5,15994.9,0,2
2022/10/1 17:00,26.4,72.3,13998.1,0,1
2022/10/1 17:10,26.4,71.8,10997.8,0,1
2022/10/1 17:20,26.6,69.3,8995.84,0,1
2022/10/1 17:30,26.5,69.3,5995.52,0,2
2022/10/1 17:40,26.2,70.7,1999.36,0,0.5
2022/10/1 17:50,25.9,70.3,999.68,0,0.5
2022/10/1 18:00,25.7,71.1,999.68,0,1
2022/10/1 18:10,25.4,72.3,467.84,0,1
2022/10/1 18:20,25.1,71,38,0,1
2022/10/1 18:30,25.2,71.7,4,0,0
2022/10/1 18:40,24.8,76.7,2,0,1
2022/10/1 18:50,24.8,77.5,2,0,0.5
2022/10/1 19:00,24.7,79,2,0,1
2022/10/1 19:10,24.7,79.2,2,0,0
2022/10/1 19:20,24.6,79.9,2,0,0.5
2022/10/1 19:30,24.7,78.2,2,0,1
2022/10/1 19:40,24.1,75.4,2,0,1.5
2022/10/1 19:50,24.1,77.1,2,0,1
2022/10/1 20:00,23.9,78.8,2,0,1
2022/10/1 20:10,23.8,81.5,2,0,1
2022/10/1 20:20,23.7,83.1,2,0,1
2022/10/1 20:30,23.6,80.1,0,0,1
2022/10/1 20:40,23.6,79.1,2,0,1
2022/10/1 20:50,23.6,78.8,2,0,1
2022/10/1 21:00,23.3,78.8,2,0,1
2022/10/1 21:10,23.1,77.7,2,0,1
2022/10/1 21:20,22.8,78,2,0,1.5
2022/10/1 21:30,22.7,80.1,2,0,1.5
2022/10/1 21:40,22.7,83.9,2,0,1
2022/10/1 21:50,22.7,85.2,2,0,2
2022/10/1 22:00,22.7,86.8,2,0,1
2022/10/1 22:10,22.4,86.3,2,0,1
2022/10/1 22:20,22.1,86,2,0,1
2022/10/1 22:30,22.2,85.3,2,0,1
2022/10/1 22:40,22.1,85.7,2,0,1.5
2022/10/1 22:50,21.9,84.1,2,0,1
2022/10/1 23:00,21.9,80.3,0,0,1
2022/10/1 23:10,21.6,77.7,2,0,1
2022/10/1 23:20,21.5,79.5,2,0,1
2022/10/1 23:30,21.3,79.7,2,0,1
2022/10/1 23:40,21.2,81.1,2,0,1
2022/10/1 23:50,21,80.4,2,0,1
2022/10/2 0:00,20.9,80.2,2,0,1
2022/10/2 0:10,20.7,81.5,2,0,0
2022/10/2 0:20,20.5,84.6,0,0,1
2022/10/2 0:30,20.5,84.1,0,0,0.5
2022/10/2 0:40,20.5,83.3,0,0,1
2022/10/2 0:50,20.3,82.9,2,0,1
2022/10/2 1:00,20.4,81.9,2,0,1
2022/10/2 1:10,20.2,82.1,2,0,2
2022/10/2 1:20,20.2,82.2,2,0,1
2022/10/2 1:30,19.9,83.1,0,0,1
2022/10/2 1:40,20,84,2,0,1
2022/10/2 1:50,19.6,84.3,2,0,1
2022/10/2 2:00,19.7,84.7,2,0,1
2022/10/2 2:10,19.7,85.4,2,0,1
2022/10/2 2:20,19.6,84.4,2,0,1
2022/10/2 2:30,19.3,84.9,0,0,1
2022/10/2 2:40,19.3,85.3,2,0,1
2022/10/2 2:50,19.4,86.8,2,0,1
2022/10/2 3:00,19.3,87.7,2,0,1
2022/10/2 3:10,19.4,87.6,2,0,1
2022/10/2 3:20,19,86.7,2,0,2
2022/10/2 3:30,19.2,87.3,2,0,2
2022/10/2 3:40,19.2,88.6,0,0,1
2022/10/2 3:50,18.9,88.7,2,0,1.5
2022/10/2 4:00,19.3,87.8,2,0,1
2022/10/2 4:10,19.3,87.4,2,0,1
2022/10/2 4:20,19,87.7,2,0,0.5
2022/10/2 4:30,19,88.8,2,0,1
2022/10/2 4:40,19,89.4,2,0,2
2022/10/2 4:50,18.9,89.2,2,0,1
2022/10/2 5:00,18.8,89.9,2,0,1
2022/10/2 5:10,18.7,90.5,2,0,0
2022/10/2 5:20,18.8,91,2,0,0
2022/10/2 5:30,18.6,91,2,0,1
2022/10/2 5:40,18.6,91.5,4,0,1
2022/10/2 5:50,18.5,92,32,0,1
2022/10/2 6:00,18.6,92.4,168,0,1
2022/10/2 6:10,18.5,92,999.68,0,1
2022/10/2 6:20,18.6,91.5,999.68,0,2
2022/10/2 6:30,18.6,91.9,4999.68,0,1
2022/10/2 6:40,18.7,91.9,16998.4,0,1
2022/10/2 6:50,18.8,92.2,19998.7,0,2
2022/10/2 7:00,18.9,91.2,25989.1,0,2
2022/10/2 7:10,19.1,90.4,28999.7,0,2
2022/10/2 7:20,19.6,89,31989.8,0,1
2022/10/2 7:30,19.7,88.2,36986.9,0,2
2022/10/2 7:40,20.2,87.4,29491.2,0,1
2022/10/2 7:50,20.6,86,24985.6,0,1
2022/10/2 8:00,21.3,83.7,34979.8,0,1
2022/10/2 8:10,21.6,81.9,34979.8,0,1
2022/10/2 8:20,22.2,80.2,34979.8,0,1.5
2022/10/2 8:30,22.5,77.8,33996.8,0,1
2022/10/2 8:40,22.8,76.5,32993.3,0,1
2022/10/2 8:50,23.5,74.5,31989.8,0,1
2022/10/2 9:00,23.6,72.8,30986.2,0,1
2022/10/2 9:10,24.2,71.6,30986.2,0,1
2022/10/2 9:20,24.6,69,29982.7,0,1
2022/10/2 9:30,25.2,65.1,28999.7,0,1
2022/10/2 9:40,25.9,63.2,27996.2,0,1
2022/10/2 9:50,26.1,61.9,27996.2,0,1
2022/10/2 10:00,26.6,60.2,26992.6,0,1
2022/10/2 10:10,27.1,58,26992.6,0,2
2022/10/2 10:20,27.5,55.1,25989.1,0,1
2022/10/2 10:30,26.7,63.2,24985.6,0,1
2022/10/2 10:40,26.5,66.1,24985.6,0,3
2022/10/2 10:50,26.2,69.1,23982.1,0,3
2022/10/2 11:00,26.1,70.3,23982.1,0,1
2022/10/2 11:10,26.5,70.6,23982.1,0,1
2022/10/2 11:20,27.1,68.4,23982.1,0,2
2022/10/2 11:30,27.5,66.6,24494.1,0,1.5
2022/10/2 11:40,27.8,65.3,8995.84,0,2
2022/10/2 11:50,28.1,63,23490.6,0,2
2022/10/2 12:00,28,64.2,25989.1,0,3
2022/10/2 12:10,27.9,63.8,26992.6,0,1.5
2022/10/2 12:20,27.3,66.4,10997.8,0,3
2022/10/2 12:30,27.5,66,25989.1,0,4
2022/10/2 12:40,28.1,64.7,21995.5,0,2
2022/10/2 12:50,27.9,65.9,25989.1,0,2
2022/10/2 13:00,28.3,62.2,28999.7,0,3
2022/10/2 13:10,27.9,63.3,29982.7,0,3
2022/10/2 13:20,28.6,59.8,26992.6,0,3
2022/10/2 13:30,28.8,58.4,12994.6,0,1
2022/10/2 13:40,29,57.8,18995.2,0,2
2022/10/2 13:50,29.4,55.9,18493.4,0,2
2022/10/2 14:00,29.3,54.7,17489.9,0,1.5
2022/10/2 14:10,29.2,55.4,18995.2,0,1
2022/10/2 14:20,30,54,35983.4,0,1
2022/10/2 14:30,30.2,58,32993.3,0,4
2022/10/2 14:40,29.5,57.9,12994.6,0,2
2022/10/2 14:50,29.8,56,17489.9,0,1
2022/10/2 15:00,30,53.5,21995.5,0,1
2022/10/2 15:10,28.5,64.2,14991.4,0,2
2022/10/2 15:20,28.5,66.1,28999.7,0,1
2022/10/2 15:30,28.2,64.9,31989.8,0,1
2022/10/2 15:40,27.5,69.9,14991.4,0,2
2022/10/2 15:50,27.8,69.4,25989.1,0,1
2022/10/2 16:00,27.7,69.3,24985.6,0,2
2022/10/2 16:10,27.9,64.5,22999,0,3
2022/10/2 16:20,29.2,58.7,20992,0,1
2022/10/2 16:30,28.7,59.7,18995.2,0,2
2022/10/2 16:40,28.6,60.9,8995.84,0,2
2022/10/2 16:50,28.4,61.8,14991.4,0,2
2022/10/2 17:00,28.5,57,11991,0,1.5
2022/10/2 17:10,28.2,58.3,9999.36,0,3
2022/10/2 17:20,27.7,59.7,4999.68,0,2
2022/10/2 17:30,27.5,61.8,3998.72,0,3
2022/10/2 17:40,27.4,63.6,1999.36,0,2
2022/10/2 17:50,27.2,64.8,999.68,0,1
2022/10/2 18:00,26.8,66.4,499.84,0,1
2022/10/2 18:10,26.7,67.8,150,0,2
2022/10/2 18:20,26.2,69.3,16,0,3
2022/10/2 18:30,26,70.4,2,0,3
2022/10/2 18:40,25.9,71.3,2,0,1
2022/10/2 18:50,25.6,72.2,2,0,2.5
2022/10/2 19:00,25.6,72.5,2,0,2
2022/10/2 19:10,25.4,72.8,2,0,1
2022/10/2 19:20,25.4,73.1,2,0,1
2022/10/2 19:30,24.9,73.9,2,0,1
2022/10/2 19:40,24.9,74.8,2,0,1
2022/10/2 19:50,24.9,75.8,2,0,1
2022/10/2 20:00,24.8,76.2,2,0,1
2022/10/2 20:10,24.6,76.8,0,0,1
2022/10/2 20:20,24.5,77.2,2,0,1
2022/10/2 20:30,24.4,77.4,2,0,1
2022/10/2 20:40,24.3,77.7,2,0,2
2022/10/2 20:50,24.3,77.4,0,0,3
2022/10/2 21:00,24.2,77.4,2,0,1
2022/10/2 21:10,24.2,77.8,0,0,1
2022/10/2 21:20,24.1,78.3,0,0,2
2022/10/2 21:30,24.2,78.6,2,0,2
2022/10/2 21:40,24,78.5,2,0,1
2022/10/2 21:50,23.8,78.1,0,0,1
2022/10/2 22:00,24,78,2,0,1
2022/10/2 22:10,23.9,78.2,0,0,1
2022/10/2 22:20,23.9,78.6,2,0,1
2022/10/2 22:30,23.6,78.7,2,0,1
2022/10/2 22:40,23.7,79.2,2,0,1
2022/10/2 22:50,23.4,79.8,2,0,1
2022/10/2 23:00,23.5,80.2,2,0,1
2022/10/2 23:10,23.5,80.3,0,0,1
2022/10/2 23:20,23.6,80.7,0,0,1
2022/10/2 23:30,23.3,81.2,0,0,1
2022/10/2 23:40,23.1,82.2,2,0,1
2022/10/2 23:50,22.8,82.6,2,0,1
2022/10/3 0:00,23.2,82.6,2,0,1
2022/10/3 0:10,22.8,83.6,2,0,1
2022/10/3 0:20,22.7,83.9,2,0,0
2022/10/3 0:30,22.6,84,2,0,1
2022/10/3 0:40,22.5,83.8,2,0,1
2022/10/3 0:50,22.4,84.7,2,0,1
2022/10/3 1:00,22.2,85.4,2,0,1
2022/10/3 1:10,22.3,86.5,2,0,1
2022/10/3 1:20,22.1,85.3,2,0,1
2022/10/3 1:30,21.8,84.3,0,0,1
2022/10/3 1:40,21.6,84.8,2,0,1
2022/10/3 1:50,21.6,83.8,2,0,0
2022/10/3 2:00,21.6,84.8,2,0,1
2022/10/3 2:10,21.3,86,2,0,2
2022/10/3 2:20,21.3,87.5,0,0,1
2022/10/3 2:30,21.3,88.4,2,0,0
2022/10/3 2:40,20.9,88.9,2,0,1
2022/10/3 2:50,20.9,88.9,2,0,1
2022/10/3 3:00,20.7,87.9,0,0,1
2022/10/3 3:10,20.6,88.7,2,0,1
2022/10/3 3:20,20.7,89.2,2,0,1
2022/10/3 3:30,20.6,89.5,0,0,0
2022/10/3 3:40,20.5,90,2,0,1
2022/10/3 3:50,20.3,90.6,2,0,1
2022/10/3 4:00,20.4,90.6,2,0,0.5
2022/10/3 4:10,20.3,90.2,2,0,1
2022/10/3 4:20,20.3,90.2,2,0,1
2022/10/3 4:30,20.4,90,2,0,1
2022/10/3 4:40,20.2,90.7,0,0,1
2022/10/3 4:50,20,90.7,0,0,1
2022/10/3 5:00,20.2,90.1,2,0,1
2022/10/3 5:10,20.1,90.1,2,0,1
2022/10/3 5:20,20.1,91.1,2,0,1
2022/10/3 5:30,20.1,90.7,2,0,1
2022/10/3 5:40,19.9,90.8,4,0,2
2022/10/3 5:50,19.8,91.2,36,0,3
2022/10/3 6:00,19.6,92.2,241.92,0,2
2022/10/3 6:10,19.8,92.5,999.68,0,2
2022/10/3 6:20,19.8,92,1999.36,0,1
2022/10/3 6:30,19.7,92.6,11991,0,1
2022/10/3 6:40,20,92.1,20992,0,2
2022/10/3 6:50,20,89.5,25989.1,0,2
2022/10/3 7:00,20.4,87.3,29982.7,0,2
2022/10/3 7:10,20.5,88.2,33996.8,0,1
2022/10/3 7:20,20.7,88.3,35983.4,0,1
2022/10/3 7:30,20.8,86,36986.9,0,1
2022/10/3 7:40,21.5,83.8,36986.9,0,2
2022/10/3 7:50,22,80.3,36986.9,0,1.5
2022/10/3 8:00,22.3,78.7,36986.9,0,1.5
2022/10/3 8:10,22.6,77.2,35983.4,0,1
2022/10/3 8:20,23.3,74.7,34979.8,0,1.5
2022/10/3 8:30,23.6,73.3,33996.8,0,1
2022/10/3 8:40,23.9,72.5,33996.8,0,2
2022/10/3 8:50,24.8,70.6,33996.8,0,1
2022/10/3 9:00,25.3,67.1,22999,0,1.5
2022/10/3 9:10,25.7,66.9,33996.8,0,1
2022/10/3 9:20,26,66.3,34979.8,0,1
2022/10/3 9:30,27.1,63.5,28999.7,0,1
2022/10/3 9:40,27.4,61.8,32993.3,0,2
2022/10/3 9:50,27.8,61.1,28487.7,0,2
2022/10/3 10:00,28.2,60,7997.44,0,3
2022/10/3 10:10,28.3,60.8,25989.1,0,1
2022/10/3 10:20,28.4,60.4,24985.6,0,1
2022/10/3 10:30,29,59.3,23982.1,0,2
2022/10/3 10:40,29.4,57.4,23982.1,0,2
2022/10/3 10:50,29.7,54.9,22999,0,1.5
2022/10/3 11:00,30,53.5,22999,0,1
2022/10/3 11:10,30.1,51.2,22999,0,2
2022/10/3 11:20,30.3,52.3,23982.1,0,2
2022/10/3 11:30,30.5,49.6,23982.1,0,3
2022/10/3 11:40,30.7,50.1,24985.6,0,1
2022/10/3 11:50,31.3,46.6,25989.1,0,2
2022/10/3 12:00,31.4,46.8,23982.1,0,2
2022/10/3 12:10,31.5,44.5,25989.1,0,2
2022/10/3 12:20,31.8,44.3,24985.6,0,1
2022/10/3 12:30,31.5,44.2,25989.1,0,3
2022/10/3 12:40,32.3,42.1,22999,0,1
2022/10/3 12:50,32,45.3,26992.6,0,3
2022/10/3 13:00,31.9,43.3,26992.6,0,1
2022/10/3 13:10,32,42.2,26992.6,0,1
2022/10/3 13:20,31.6,49.6,26992.6,0,2
2022/10/3 13:30,29.6,57.3,26992.6,0,4.5
2022/10/3 13:40,29.4,62.1,28999.7,0,3
2022/10/3 13:50,29.2,60.7,29982.7,0,3
2022/10/3 14:00,29,61.8,29982.7,0,4
2022/10/3 14:10,29.2,61.2,31989.8,0,4
2022/10/3 14:20,29.5,61.6,32993.3,0,2
2022/10/3 14:30,29.1,63.4,31989.8,0,3.5
2022/10/3 14:40,29.5,63.3,31989.8,0,3
2022/10/3 14:50,29.2,62.4,33996.8,0,4
2022/10/3 15:00,29.2,62.5,31989.8,0,2
2022/10/3 15:10,29.7,61.5,35983.4,0,2
2022/10/3 15:20,29.9,57.7,10997.8,0,1.5
2022/10/3 15:30,30.3,56.7,31989.8,0,1
2022/10/3 15:40,30.6,54.5,31989.8,0,3
2022/10/3 15:50,31,53.5,23982.1,0,3
2022/10/3 16:00,30.4,55.6,18995.2,0,3
2022/10/3 16:10,29.8,56.8,12994.6,0,3
2022/10/3 16:20,29.2,58.9,11991,0,3
2022/10/3 16:30,29.3,59.1,19998.7,0,3
2022/10/3 16:40,29.5,58.5,14991.4,0,2.5
2022/10/3 16:50,29.1,58.2,10997.8,0,2.5
2022/10/3 17:00,29.3,58.1,10997.8,0,2
2022/10/3 17:10,28.8,57.4,7997.44,0,2.5
2022/10/3 17:20,28.5,58.1,4999.68,0,4
2022/10/3 17:30,28.3,58.6,3499.52,0,3
2022/10/3 17:40,28.1,59.8,1999.36,0,2
2022/10/3 17:50,27.9,60.8,999.68,0,2
2022/10/3 18:00,27.5,61.9,999.68,0,3
2022/10/3 18:10,27.4,62.6,413.76,0,2
2022/10/3 18:20,27.3,63.2,30,0,1
2022/10/3 18:30,27.1,64,2,0,1
2022/10/3 18:40,26.7,64,2,0,1
2022/10/3 18:50,26.6,64.4,2,0,1
2022/10/3 19:00,26.4,65.3,2,0,2
2022/10/3 19:10,26.3,66,2,0,2
2022/10/3 19:20,26.2,67.1,0,0,2
2022/10/3 19:30,26.1,68.3,2,0,1.5
2022/10/3 19:40,25.8,69.2,2,0,2.5
2022/10/3 19:50,25.7,69.5,2,0,1.5
2022/10/3 20:00,25.7,69.6,2,0,1
2022/10/3 20:10,25.6,69.6,0,0,1
2022/10/3 20:20,25.6,69.7,0,0,1.5
2022/10/3 20:30,25.4,71.5,2,0,2
2022/10/3 20:40,25.5,72.7,2,0,2
2022/10/3 20:50,25.5,73.1,0,0,1
2022/10/3 21:00,25.1,73.6,2,0,1
2022/10/3 21:10,25.3,74.2,0,0,1
2022/10/3 21:20,25.3,74.9,0,0,1
2022/10/3 21:30,25.1,75.4,0,0,1
2022/10/3 21:40,25,75.6,0,0,1
2022/10/3 21:50,24.7,76,0,0,1
2022/10/3 22:00,24.8,76.4,0,0,2
2022/10/3 22:10,24.9,76.6,0,0,1
2022/10/3 22:20,25,77,0,0,0
2022/10/3 22:30,24.7,77.7,2,0,1
2022/10/3 22:40,24.9,78,0,0,1
2022/10/3 22:50,24.8,78.1,2,0,0
2022/10/3 23:00,24.9,77.8,2,0,1
2022/10/3 23:10,24.5,78.4,2,0,1
2022/10/3 23:20,24.5,79.4,0,0,1
2022/10/3 23:30,24.4,80.3,2,0,2
2022/10/3 23:40,24.3,80.3,2,0,1
2022/10/3 23:50,24.3,80.5,0,0,1
2022/10/4 0:00,24.1,81.6,0,0,1
2022/10/4 0:10,23.8,82.4,2,0,1
2022/10/4 0:20,23.5,83.5,0,0,1
2022/10/4 0:30,23.6,83.6,0,0,1
2022/10/4 0:40,23.5,83.9,0,0,1
2022/10/4 0:50,23.3,85.1,2,0,2
2022/10/4 1:00,23.2,85.8,2,0,2
2022/10/4 1:10,23.2,85.9,2,0,1
2022/10/4 1:20,23.1,86,2,0,2
2022/10/4 1:30,22.8,86.4,2,0,1
2022/10/4 1:40,22.7,87.8,2,0,1
2022/10/4 1:50,22.6,88.4,2,0,1
2022/10/4 2:00,22.5,88.3,2,0,1.5
2022/10/4 2:10,22.4,88.1,2,0,2
2022/10/4 2:20,22.2,87.8,2,0,1
2022/10/4 2:30,22.4,88,2,0,0.5
2022/10/4 2:40,22.6,88.1,2,0,2
2022/10/4 2:50,22.5,88.5,2,0,1
2022/10/4 3:00,22.1,88.8,2,0,0
2022/10/4 3:10,22.2,88.3,2,0,1
2022/10/4 3:20,22.2,88.1,2,0,1
2022/10/4 3:30,22.1,89.4,2,0,1
2022/10/4 3:40,21.9,91.1,2,0,1
2022/10/4 3:50,21.7,91.2,2,0,0
2022/10/4 4:00,21.7,91.6,0,0,0
2022/10/4 4:10,21.5,91.8,0,0,1
2022/10/4 4:20,21.4,92.5,0,0,1
2022/10/4 4:30,21.6,92.3,2,0,1
2022/10/4 4:40,21.7,91.7,2,0,1
2022/10/4 4:50,21.5,91.4,2,0,1
2022/10/4 5:00,21.5,91.6,2,0,1
2022/10/4 5:10,21.5,92.5,2,0,1
2022/10/4 5:20,21.4,91.3,2,0,1
2022/10/4 5:30,21.2,90.7,2,0,1
2022/10/4 5:40,21.4,90.5,2,0,1
2022/10/4 5:50,21.4,91.2,18,0,2
2022/10/4 6:00,21,91.5,152,0,2
2022/10/4 6:10,20.9,92,499.84,0,1
2022/10/4 6:20,20.8,93.2,999.68,0,1
2022/10/4 6:30,20.7,93.4,1999.36,0,1
2022/10/4 6:40,20.9,92.7,18995.2,0,2
2022/10/4 6:50,21,92.2,26992.6,0,1
2022/10/4 7:00,21.4,91.2,31989.8,0,1
2022/10/4 7:10,21.6,89.4,34979.8,0,1
2022/10/4 7:20,22.1,87.7,36986.9,0,2
2022/10/4 7:30,22.1,86.2,38993.9,0,2
2022/10/4 7:40,22.7,84.8,37990.4,0,1
2022/10/4 7:50,23.1,83.5,37990.4,0,1
2022/10/4 8:00,23.5,80.6,36986.9,0,1
2022/10/4 8:10,23.9,78.6,35983.4,0,1
2022/10/4 8:20,24.4,77.4,34979.8,0,1
2022/10/4 8:30,25,74.2,33996.8,0,1
2022/10/4 8:40,25.8,71.5,29982.7,0,1
2022/10/4 8:50,26.1,69.2,31989.8,0,1
2022/10/4 9:00,26.6,68.1,30986.2,0,1
2022/10/4 9:10,27.1,65.1,30494.7,0,2
2022/10/4 9:20,27.9,62.3,29982.7,0,1
2022/10/4 9:30,28.5,59.7,28999.7,0,1
2022/10/4 9:40,28.8,58.4,27996.2,0,1
2022/10/4 9:50,29.4,56.7,26992.6,0,3
2022/10/4 10:00,28.4,64.5,24985.6,0,4
2022/10/4 10:10,26.1,74.8,25989.1,0,2
2022/10/4 10:20,26.4,75.1,25989.1,0,3
2022/10/4 10:30,26.8,71.6,25989.1,0,1
2022/10/4 10:40,27.9,67.4,25989.1,0,1
2022/10/4 10:50,28.3,65,25989.1,0,1
2022/10/4 11:00,29.4,61.1,25989.1,0,2
2022/10/4 11:10,29.9,58.9,25989.1,0,1
2022/10/4 11:20,31,56.7,27996.2,0,1.5
2022/10/4 11:30,31.7,51,28999.7,0,1
2022/10/4 11:40,30.9,56.3,27996.2,0,1
2022/10/4 11:50,30.2,56.8,21483.5,0,3
2022/10/4 12:00,29.1,62.6,19998.7,0,2
2022/10/4 12:10,29.5,59.6,21995.5,0,1
2022/10/4 12:20,29.9,56.8,36986.9,0,1
2022/10/4 12:30,30.5,53.8,25989.1,0,1
2022/10/4 12:40,31,51,20992,0,2.5
2022/10/4 12:50,31.7,51.1,26992.6,0,1
2022/10/4 13:00,31.9,48,21995.5,0,1
2022/10/4 13:10,31.9,48.5,34488.3,0,1
2022/10/4 13:20,32.1,47.6,19998.7,0,1
2022/10/4 13:30,31.3,48.2,18995.2,0,1
2022/10/4 13:40,31.5,49,21483.5,0,1
2022/10/4 13:50,32.8,46.6,35983.4,0,1
2022/10/4 14:00,33.8,44.6,40980.5,0,1
2022/10/4 14:10,33.9,42.2,37990.4,0,2
2022/10/4 14:20,33.4,43.1,25989.1,0,2.5
2022/10/4 14:30,32.7,43.8,33996.8,0,2
2022/10/4 14:40,32,45.8,11991,0,2
2022/10/4 14:50,31.6,48.2,3998.72,0,1
2022/10/4 15:00,30.3,52.6,2997.76,0,3
2022/10/4 15:10,30.1,53.6,3998.72,0,2
2022/10/4 15:20,30.4,53.4,9999.36,0,1
2022/10/4 15:30,30.1,53.5,5995.52,0,1.5
2022/10/4 15:40,30.3,53.7,10997.8,0,0
2022/10/4 15:50,30.7,54.8,14991.4,0,2
2022/10/4 16:00,30.5,55.6,16998.4,0,2
2022/10/4 16:10,31,54.5,29982.7,0,3.5
2022/10/4 16:20,31,54.8,21995.5,0,3
2022/10/4 16:30,30.7,54.7,23982.1,0,2
2022/10/4 16:40,30.9,52.4,21995.5,0,2
2022/10/4 16:50,30.6,53.9,12994.6,0,2
2022/10/4 17:00,30.5,54.8,14991.4,0,2
2022/10/4 17:10,30.4,55.9,12994.6,0,1
2022/10/4 17:20,30.3,57.3,9999.36,0,1.5
2022/10/4 17:30,30,58.1,4999.68,0,2
2022/10/4 17:40,29.5,59.4,1999.36,0,1
2022/10/4 17:50,29.5,60.1,999.68,0,2
2022/10/4 18:00,29.2,59.8,220,0,1
2022/10/4 18:10,29,60,36,0,2.5
2022/10/4 18:20,28.9,60.6,4,0,3
2022/10/4 18:30,28.6,61,2,0,2
2022/10/4 18:40,28.7,60.9,2,0,2
2022/10/4 18:50,28.6,60.8,2,0,2
2022/10/4 19:00,28.5,61.1,2,0,1.5
2022/10/4 19:10,28.5,60.6,2,0,1
2022/10/4 19:20,28.3,61,2,0,0.5
2022/10/4 19:30,28.3,61.4,2,0,1
2022/10/4 19:40,28.1,61.5,2,0,1
2022/10/4 19:50,27.9,61.9,2,0,1
2022/10/4 20:00,28,61.7,2,0,1
2022/10/4 20:10,27.9,62.1,2,0,1
2022/10/4 20:20,27.9,62.2,2,0,1.5
2022/10/4 20:30,27.9,63.5,2,0,1
2022/10/4 20:40,27.5,63.9,2,0,1
2022/10/4 20:50,27.5,64.1,2,0,1.5
2022/10/4 21:00,27.6,65.1,2,0,1
2022/10/4 21:10,27.7,65.4,2,0,1
2022/10/4 21:20,27.4,70.7,2,1,2
2022/10/4 21:30,26.9,75.1,2,1,1
2022/10/4 21:40,26.2,76.8,2,1,1
2022/10/4 21:50,25.8,82.9,2,1,1
2022/10/4 22:00,25.3,86,2,1,1
2022/10/4 22:10,25.1,86.1,2,1,1.5
2022/10/4 22:20,25.4,88,2,1,0
2022/10/4 22:30,25.1,87.5,2,1,1
2022/10/4 22:40,25.2,88.8,2,1,1
2022/10/4 22:50,25.1,88,2,1,0
2022/10/4 23:00,25.3,87.9,2,1,0
2022/10/4 23:10,25.1,89.7,2,1,1
2022/10/4 23:20,24.9,89.5,2,1,1
2022/10/4 23:30,24.4,89.1,2,0,5
2022/10/4 23:40,23.9,91.2,2,0,2
2022/10/4 23:50,24.1,89.8,2,0,2.5
2022/10/5 0:00,24.2,89.6,2,0,1.5
2022/10/5 0:10,23.8,89,2,0,2.5
2022/10/5 0:20,23.6,89.8,2,0,4
2022/10/5 0:30,23.8,89.2,2,0,3
2022/10/5 0:40,23.9,88.3,2,0,1
2022/10/5 0:50,23.5,87.2,2,0,3.5
2022/10/5 1:00,23.5,86.7,2,0,3
2022/10/5 1:10,23.2,86.6,2,0,2
2022/10/5 1:20,23.3,87.3,2,0,1
2022/10/5 1:30,23.3,86.6,2,0,3
2022/10/5 1:40,23.2,87.3,2,0,4.5
2022/10/5 1:50,23.2,86.7,2,0,6
2022/10/5 2:00,23.2,86.8,2,0,3
2022/10/5 2:10,22.8,87,2,0,1
2022/10/5 2:20,22.8,87,2,0,4
2022/10/5 2:30,22.9,87.4,2,0,2
2022/10/5 2:40,22.8,86.8,2,0,2.5
2022/10/5 2:50,22.7,87,2,0,5.5
2022/10/5 3:00,22.6,86,2,0,5
2022/10/5 3:10,22.7,86.3,2,0,3
2022/10/5 3:20,22.7,86.3,2,0,3.5
2022/10/5 3:30,22.5,88.9,2,1,1
2022/10/5 3:40,22.2,89.3,2,0,2
2022/10/5 3:50,22.4,87.2,2,0,2
2022/10/5 4:00,22.5,87,2,0,1
2022/10/5 4:10,22.3,86.6,2,0,6
2022/10/5 4:20,22.3,86.3,2,0,6
2022/10/5 4:30,22.6,85.9,2,0,7
2022/10/5 4:40,22.4,85.5,2,0,3
2022/10/5 4:50,22.2,85.8,2,0,6.5
2022/10/5 5:00,22.5,85.8,2,0,2
2022/10/5 5:10,22.2,85.5,2,0,1
2022/10/5 5:20,22.3,85.8,2,0,2
2022/10/5 5:30,22.2,86,2,0,2
2022/10/5 5:40,22.2,86.2,2,0,3.5
2022/10/5 5:50,22.2,86.5,2,0,2
2022/10/5 6:00,22.3,85.3,10,0,3.5
2022/10/5 6:10,22.2,85.9,102,0,4
2022/10/5 6:20,21.9,86.4,499.84,0,3
2022/10/5 6:30,21.9,86.5,999.68,0,4
2022/10/5 6:40,22.1,86.4,999.68,0,3
2022/10/5 6:50,22,85.5,999.68,0,6
2022/10/5 7:00,22.1,86.4,1999.36,0,3.5
2022/10/5 7:10,21.9,85.2,1999.36,0,5
2022/10/5 7:20,22.2,85.1,4999.68,0,4.5
2022/10/5 7:30,22.1,84.1,3998.72,0,4.5
2022/10/5 7:40,22,84.1,3998.72,0,4
2022/10/5 7:50,22.1,84.1,2997.76,0,5.5
2022/10/5 8:00,22,84,2997.76,0,3.5
2022/10/5 8:10,22,84.3,6999.04,0,4
2022/10/5 8:20,22,84.6,11991,0,4
2022/10/5 8:30,22.1,84.1,18493.4,0,2
2022/10/5 8:40,22.1,83.2,20992,0,2.5
2022/10/5 8:50,22.3,82.8,9999.36,0,2
2022/10/5 9:00,22.2,83.2,15994.9,0,4
2022/10/5 9:10,22.4,82.8,17991.7,0,5
2022/10/5 9:20,22.4,82.5,14991.4,0,2.5
2022/10/5 9:30,22.3,81.2,23982.1,0,3
2022/10/5 9:40,22.7,80,28999.7,0,4
2022/10/5 9:50,22.7,78.9,33996.8,0,2
2022/10/5 10:00,23.2,77.7,27996.2,0,3
2022/10/5 10:10,23.3,77.4,25989.1,0,3
2022/10/5 10:20,23.6,75.7,24985.6,0,5
2022/10/5 10:30,23.7,73.6,24985.6,0,4.5
2022/10/5 10:40,24,73.4,25989.1,0,3.5
2022/10/5 10:50,23.8,73.4,21995.5,0,4
2022/10/5 11:00,23.8,72.3,27996.2,0,4.5
2022/10/5 11:10,24.2,71.7,26992.6,0,1.5
2022/10/5 11:20,24.4,71.3,27996.2,0,1
2022/10/5 11:30,24.9,68.9,33484.8,0,2
2022/10/5 11:40,24.5,70.8,22999,0,5.5
2022/10/5 11:50,24.4,70.4,34979.8,0,3.5
2022/10/5 12:00,24.7,69.6,29491.2,0,4
2022/10/5 12:10,24.9,69.1,25989.1,0,2
2022/10/5 12:20,24.3,71.7,23982.1,0,1.5
2022/10/5 12:30,24.7,69.2,40980.5,0,3
2022/10/5 12:40,24.5,70,44974.1,0,3
2022/10/5 12:50,25,68.5,23982.1,0,1
2022/10/5 13:00,24.1,71.2,21995.5,0,5
2022/10/5 13:10,24.3,70.4,23982.1,0,2
2022/10/5 13:20,23.9,70.5,23982.1,0,7
2022/10/5 13:30,24.2,69.2,30986.2,0,2.5
2022/10/5 13:40,24.2,67.9,24985.6,0,2.5
2022/10/5 13:50,24.3,69,23982.1,0,7
2022/10/5 14:00,23.9,70.2,20992,0,4.5
2022/10/5 14:10,23.8,71.6,19998.7,0,6.5
2022/10/5 14:20,23.8,73,20992,0,2
2022/10/5 14:30,23.8,72.4,22999,0,2
2022/10/5 14:40,23.7,71.5,23982.1,0,2
2022/10/5 14:50,23.5,73.5,19998.7,0,5.5
2022/10/5 15:00,23.5,72.3,18995.2,0,4
2022/10/5 15:10,23.7,73.4,16998.4,0,2
2022/10/5 15:20,23.8,74.1,17991.7,0,3
2022/10/5 15:30,23.7,71.4,30986.2,0,5
2022/10/5 15:40,24.2,70.9,28999.7,0,3.5
2022/10/5 15:50,23.9,69.8,27996.2,0,2
2022/10/5 16:00,23.9,68.8,26992.6,0,4